User: anonymous   Login
Location: Trani
(41.2830°N, 16.4170°E)
Time: 23:54:57
(UTC+02:00)
Language:

ISS - Orbit

View from above orbital plane
View from above orbital plane
View from above satellite
View from above satellite

Ground track
Ground track

The orbit data is extracted from the following two-line orbital elements,

1 25544U 98067A   20271.00292477  .00016717  00000-0  10270-3 0  9022
2 25544  51.6427 204.6619 0001374 113.6972 246.4323 15.48789530  7796
Epoch (UTC): 27 September 2020 00:04:12
Eccentricity: 0.0001374
inclination: 51.6427°
perigee height: 419 km
apogee height: 421 km
right ascension of ascending node: 204.6619°
argument of perigee: 113.6972°
revolutions per day: 15.48789530
mean anomaly at epoch: 246.4323°
orbit number at epoch: 779

The dashed part of the orbit path shows where the satellite is in the earth's shadow,  

DLR